カタログに戻る

STARLINK-11134

運用中通信VLEO
NORAD 59956·PAYLOAD·🇺🇸 United States

打ち上げ Jun 5, 2024 から Cape Canaveral Space Force Station

Loading…

次のパス (今後24時間)

TLE

最新Source: CelesTrak SupGP

元期: Sep 15, 2026, 02:46 UTC

1 59956C 24107M   26258.11576389 -.00106540  00000+0 -87747-3 0  2582
2 59956  53.1573  37.2051 0000979  96.0920 167.6792 15.69767681    14

AllMySatでSTARLINK-11134をリアルタイム追跡

Download on the App Store